Time,TemperatureF,DewpointF,PressureIn,WindDirection,WindDirectionDegrees,WindSpeedMPH,WindSpeedGustMPH,Humidity,HourlyPrecipIn,Conditions,Clouds,dailyrainin,SoftwareType,DateUTC
2013-06-27 00:03:00,64.9,63.0,29.95,ENE,78,0.0,2.0,94,0.00,,,0.00,weatherlink.com 1.10,2013-06-27 04:03:00,
2013-06-27 00:18:00,64.6,63.0,29.95,ENE,78,0.0,1.0,95,0.00,,,0.00,weatherlink.com 1.10,2013-06-27 04:18:00,
2013-06-27 00:33:00,64.3,63.0,29.95,ENE,78,0.0,1.0,95,0.00,,,0.00,weatherlink.com 1.10,2013-06-27 04:33:00,
2013-06-27 00:48:00,64.3,63.0,29.96,ENE,78,1.0,2.0,95,0.00,,,0.00,weatherlink.com 1.10,2013-06-27 04:48:00,
2013-06-27 01:03:00,64.5,63.0,29.96,ENE,78,0.0,0.0,95,0.00,,,0.00,weatherlink.com 1.10,2013-06-27 05:03:00,
2013-06-27 01:18:00,64.5,63.0,29.96,ENE,78,1.0,1.0,95,0.00,,,0.00,weatherlink.com 1.10,2013-06-27 05:18:00,
2013-06-27 01:34:00,64.3,63.0,29.95,ENE,78,0.0,1.0,95,0.00,,,0.00,weatherlink.com 1.10,2013-06-27 05:34:00,
2013-06-27 01:49:00,64.1,63.0,29.95,ENE,78,0.0,1.0,95,0.00,,,0.00,weatherlink.com 1.10,2013-06-27 05:49:00,
2013-06-27 02:04:00,63.9,63.0,29.95,ENE,78,0.0,1.0,96,0.00,,,0.00,weatherlink.com 1.10,2013-06-27 06:04:00,
2013-06-27 02:19:00,63.6,63.0,29.94,ENE,78,0.0,1.0,96,0.00,,,0.00,weatherlink.com 1.10,2013-06-27 06:19:00,
2013-06-27 02:34:00,63.7,63.0,29.93,ENE,78,0.0,0.0,96,0.00,,,0.00,weatherlink.com 1.10,2013-06-27 06:34:00,
2013-06-27 02:49:00,63.7,63.0,29.93,ENE,78,0.0,1.0,96,0.00,,,0.00,weatherlink.com 1.10,2013-06-27 06:49:00,
2013-06-27 03:04:00,63.6,63.0,29.93,SSE,149,1.0,2.0,96,0.00,,,0.00,weatherlink.com 1.10,2013-06-27 07:04:00,
2013-06-27 03:19:00,63.1,62.0,29.92,SSE,149,0.0,0.0,96,0.00,,,0.00,weatherlink.com 1.10,2013-06-27 07:19:00,
2013-06-27 03:34:00,63.2,62.0,29.92,SSE,149,0.0,0.0,96,0.00,,,0.00,weatherlink.com 1.10,2013-06-27 07:34:00,
2013-06-27 03:49:00,63.4,63.0,29.91,SSE,149,0.0,0.0,97,0.00,,,0.00,weatherlink.com 1.10,2013-06-27 07:49:00,
2013-06-27 04:04:00,63.7,63.0,29.92,SSE,149,0.0,0.0,97,0.00,,,0.00,weatherlink.com 1.10,2013-06-27 08:04:00,
2013-06-27 04:19:00,63.9,63.0,29.92,SSE,149,0.0,0.0,97,0.00,,,0.00,weatherlink.com 1.10,2013-06-27 08:19:00,
2013-06-27 04:34:00,64.1,63.0,29.92,SSE,149,0.0,0.0,97,0.00,,,0.00,weatherlink.com 1.10,2013-06-27 08:34:00,
2013-06-27 04:49:00,64.3,64.0,29.94,SSE,149,0.0,0.0,97,0.00,,,0.00,weatherlink.com 1.10,2013-06-27 08:49:00,
2013-06-27 05:04:00,64.4,64.0,29.94,SSE,149,0.0,0.0,97,0.00,,,0.00,weatherlink.com 1.10,2013-06-27 09:04:00,
2013-06-27 05:19:00,64.5,64.0,29.94,SSE,152,0.0,2.0,97,0.00,,,0.00,weatherlink.com 1.10,2013-06-27 09:19:00,
2013-06-27 05:34:00,64.3,64.0,29.94,SSE,152,0.0,1.0,97,0.00,,,0.00,weatherlink.com 1.10,2013-06-27 09:34:00,
2013-06-27 05:49:00,64.3,64.0,29.94,SSE,152,0.0,0.0,97,0.00,,,0.00,weatherlink.com 1.10,2013-06-27 09:49:00,
2013-06-27 06:04:00,64.1,63.0,29.94,SSE,152,0.0,0.0,97,0.00,,,0.00,weatherlink.com 1.10,2013-06-27 10:04:00,
2013-06-27 06:19:00,64.1,63.0,29.94,SSE,152,0.0,0.0,97,0.00,,,0.00,weatherlink.com 1.10,2013-06-27 10:19:00,
2013-06-27 06:34:00,64.2,63.0,29.94,SSE,152,0.0,0.0,97,0.00,,,0.00,weatherlink.com 1.10,2013-06-27 10:34:00,
2013-06-27 06:49:00,64.2,63.0,29.95,SSE,152,0.0,1.0,97,0.00,,,0.00,weatherlink.com 1.10,2013-06-27 10:49:00,
2013-06-27 07:04:00,64.3,64.0,29.95,SSE,152,0.0,0.0,98,0.00,,,0.00,weatherlink.com 1.10,2013-06-27 11:04:00,
2013-06-27 07:19:00,64.8,64.0,29.95,SSE,152,0.0,0.0,98,0.00,,,0.00,weatherlink.com 1.10,2013-06-27 11:19:00,
2013-06-27 07:34:00,64.6,64.0,29.95,SSE,152,0.0,2.0,97,0.00,,,0.00,weatherlink.com 1.10,2013-06-27 11:34:00,
2013-06-27 07:49:00,64.7,64.0,29.95,SSE,152,0.0,2.0,97,0.00,,,0.00,weatherlink.com 1.10,2013-06-27 11:49:00,
2013-06-27 08:04:00,64.8,64.0,29.95,SSE,152,0.0,2.0,98,0.00,,,0.00,weatherlink.com 1.10,2013-06-27 12:04:00,
2013-06-27 08:19:00,65.2,65.0,29.95,SSE,152,0.0,1.0,98,0.00,,,0.00,weatherlink.com 1.10,2013-06-27 12:19:00,
2013-06-27 08:34:00,65.4,65.0,29.95,SSE,152,0.0,1.0,98,0.00,,,0.00,weatherlink.com 1.10,2013-06-27 12:34:00,
2013-06-27 08:49:00,65.6,65.0,29.95,SSE,152,0.0,2.0,98,0.00,,,0.00,weatherlink.com 1.10,2013-06-27 12:49:00,
2013-06-27 09:04:00,65.9,65.0,29.94,SSE,152,1.0,2.0,98,0.00,,,0.00,weatherlink.com 1.10,2013-06-27 13:04:00,
2013-06-27 09:19:00,66.1,66.0,29.94,SSE,152,0.0,1.0,98,0.00,,,0.00,weatherlink.com 1.10,2013-06-27 13:19:00,
2013-06-27 09:34:00,66.6,66.0,29.94,SSE,152,2.0,2.0,97,0.00,,,0.00,weatherlink.com 1.10,2013-06-27 13:34:00,
2013-06-27 09:49:00,67.0,66.0,29.94,SSE,152,2.0,2.0,97,0.00,,,0.00,weatherlink.com 1.10,2013-06-27 13:49:00,
2013-06-27 10:04:00,67.5,67.0,29.94,SSE,152,1.0,2.0,97,0.00,,,0.00,weatherlink.com 1.10,2013-06-27 14:04:00,
2013-06-27 10:19:00,67.6,67.0,29.94,SSW,197,1.0,3.0,96,0.00,,,0.00,weatherlink.com 1.10,2013-06-27 14:19:00,
2013-06-27 10:34:00,68.0,67.0,29.94,SSW,198,0.0,2.0,96,0.00,,,0.00,weatherlink.com 1.10,2013-06-27 14:34:00,
2013-06-27 10:49:00,68.4,67.0,29.95,SSW,193,1.0,3.0,95,0.00,,,0.00,weatherlink.com 1.10,2013-06-27 14:49:00,
2013-06-27 11:05:00,68.9,68.0,29.94,South,186,1.0,3.0,95,0.00,,,0.00,weatherlink.com 1.10,2013-06-27 15:05:00,
2013-06-27 11:19:00,68.7,67.0,29.94,SE,146,1.0,6.0,94,0.00,,,0.00,weatherlink.com 1.10,2013-06-27 15:19:00,
2013-06-27 11:34:00,68.9,68.0,29.94,SE,139,0.0,3.0,95,0.00,,,0.00,weatherlink.com 1.10,2013-06-27 15:34:00,
2013-06-27 11:49:00,69.8,68.0,29.94,SE,139,1.0,3.0,93,0.00,,,0.00,weatherlink.com 1.10,2013-06-27 15:49:00,
2013-06-27 12:04:00,69.9,67.0,29.93,SSE,151,1.0,4.0,91,0.00,,,0.00,weatherlink.com 1.10,2013-06-27 16:04:00,
2013-06-27 12:19:00,70.8,68.0,29.92,SSE,149,3.0,3.0,91,0.00,,,0.00,weatherlink.com 1.10,2013-06-27 16:19:00,
2013-06-27 12:34:00,73.0,69.0,29.92,SE,146,1.0,6.0,88,0.00,,,0.00,weatherlink.com 1.10,2013-06-27 16:34:00,
2013-06-27 12:50:00,73.6,69.0,29.91,South,173,2.0,5.0,86,0.00,,,0.00,weatherlink.com 1.10,2013-06-27 16:50:00,
2013-06-27 13:05:00,74.2,69.0,29.91,SSW,196,0.0,6.0,84,0.00,,,0.00,weatherlink.com 1.10,2013-06-27 17:05:00,
2013-06-27 13:20:00,75.5,71.0,29.91,SW,221,2.0,5.0,86,0.00,,,0.00,weatherlink.com 1.10,2013-06-27 17:20:00,
2013-06-27 13:35:00,76.7,71.0,29.90,South,190,4.0,8.0,81,0.00,,,0.00,weatherlink.com 1.10,2013-06-27 17:35:00,
2013-06-27 13:50:00,75.8,69.0,29.90,SSW,204,1.0,6.0,79,0.00,,,0.00,weatherlink.com 1.10,2013-06-27 17:50:00,
2013-06-27 14:05:00,76.2,70.0,29.90,South,182,2.0,6.0,80,0.00,,,0.00,weatherlink.com 1.10,2013-06-27 18:05:00,
2013-06-27 14:20:00,75.8,69.0,29.89,SE,125,7.0,7.0,80,0.00,,,0.00,weatherlink.com 1.10,2013-06-27 18:20:00,
2013-06-27 14:35:00,75.2,68.0,29.88,ESE,119,5.0,8.0,78,0.00,,,0.00,weatherlink.com 1.10,2013-06-27 18:35:00,
2013-06-27 14:50:00,75.7,69.0,29.88,SSW,192,2.0,5.0,79,0.00,,,0.00,weatherlink.com 1.10,2013-06-27 18:50:00,
2013-06-27 15:05:00,77.0,71.0,29.88,South,171,2.0,8.0,82,0.00,,,0.00,weatherlink.com 1.10,2013-06-27 19:05:00,
2013-06-27 15:20:00,77.2,72.0,29.88,East,91,0.0,6.0,83,0.00,,,0.00,weatherlink.com 1.10,2013-06-27 19:20:00,
2013-06-27 15:50:00,75.6,69.0,29.87,SE,136,2.0,8.0,79,0.00,,,0.00,weatherlink.com 1.10,2013-06-27 19:50:00,
2013-06-27 16:05:00,75.5,68.0,29.87,South,186,0.0,5.0,78,0.00,,,0.00,weatherlink.com 1.10,2013-06-27 20:05:00,
2013-06-27 16:20:00,76.2,70.0,29.86,SSE,156,2.0,4.0,80,0.00,,,0.00,weatherlink.com 1.10,2013-06-27 20:20:00,
2013-06-27 16:35:00,76.1,67.0,29.87,SE,132,4.0,10.0,73,0.00,,,0.00,weatherlink.com 1.10,2013-06-27 20:35:00,
2013-06-27 16:50:00,75.4,69.0,29.86,ESE,113,3.0,8.0,79,0.00,,,0.00,weatherlink.com 1.10,2013-06-27 20:50:00,
2013-06-27 17:05:00,75.6,69.0,29.86,SW,215,0.0,5.0,81,0.00,,,0.00,weatherlink.com 1.10,2013-06-27 21:05:00,
2013-06-27 17:20:00,75.1,68.0,29.86,South,188,3.0,6.0,79,0.00,,,0.00,weatherlink.com 1.10,2013-06-27 21:20:00,
2013-06-27 17:35:00,74.5,69.0,29.86,SE,146,5.0,6.0,83,0.00,,,0.00,weatherlink.com 1.10,2013-06-27 21:35:00,
2013-06-27 18:05:00,73.8,69.0,29.86,South,180,1.0,6.0,84,0.00,,,0.00,weatherlink.com 1.10,2013-06-27 22:05:00,
2013-06-27 18:20:00,73.2,67.0,29.86,SE,135,8.0,11.0,82,0.00,,,0.00,weatherlink.com 1.10,2013-06-27 22:20:00,
2013-06-27 18:35:00,72.9,68.0,29.86,South,181,5.0,6.0,85,0.00,,,0.00,weatherlink.com 1.10,2013-06-27 22:35:00,
2013-06-27 18:50:00,72.5,68.0,29.85,South,173,4.0,9.0,85,0.00,,,0.00,weatherlink.com 1.10,2013-06-27 22:50:00,
2013-06-27 19:05:00,71.6,67.0,29.85,SE,138,7.0,12.0,86,0.00,,,0.00,weatherlink.com 1.10,2013-06-27 23:05:00,
2013-06-27 19:20:00,70.7,67.0,29.86,ESE,106,8.0,14.0,87,0.00,,,0.00,weatherlink.com 1.10,2013-06-27 23:20:00,
2013-06-27 19:35:00,70.3,67.0,29.86,SSE,155,1.0,7.0,88,0.00,,,0.00,weatherlink.com 1.10,2013-06-27 23:35:00,
2013-06-27 19:50:00,70.0,67.0,29.87,South,174,1.0,7.0,89,0.00,,,0.00,weatherlink.com 1.10,2013-06-27 23:50:00,
2013-06-27 20:05:00,69.8,67.0,29.87,SSE,166,0.0,2.0,89,0.00,,,0.00,weatherlink.com 1.10,2013-06-28 00:05:00,
2013-06-27 20:20:00,69.1,66.0,29.87,SE,142,0.0,3.0,91,0.00,,,0.00,weatherlink.com 1.10,2013-06-28 00:20:00,
2013-06-27 20:35:00,68.5,66.0,29.86,SSE,153,0.0,2.0,92,0.01,,,0.01,weatherlink.com 1.10,2013-06-28 00:35:00,
2013-06-27 20:50:00,68.1,66.0,29.86,SSE,153,0.0,3.0,93,0.02,,,0.02,weatherlink.com 1.10,2013-06-28 00:50:00,
2013-06-27 21:35:00,67.5,66.0,29.86,East,98,5.0,5.0,94,0.04,,,0.05,weatherlink.com 1.10,2013-06-28 01:35:00,
2013-06-27 22:05:00,66.5,65.0,29.86,ESE,113,4.0,8.0,96,0.00,,,0.05,weatherlink.com 1.10,2013-06-28 02:05:00,
2013-06-27 22:20:00,66.1,65.0,29.85,ESE,117,4.0,9.0,96,0.00,,,0.05,weatherlink.com 1.10,2013-06-28 02:20:00,
2013-06-27 22:35:00,65.6,65.0,29.85,SE,130,1.0,10.0,96,0.00,,,0.05,weatherlink.com 1.10,2013-06-28 02:35:00,
2013-06-27 22:50:00,65.2,64.0,29.84,ESE,107,2.0,10.0,96,0.00,,,0.05,weatherlink.com 1.10,2013-06-28 02:50:00,
2013-06-27 23:05:00,64.9,64.0,29.83,ESE,107,5.0,8.0,96,0.00,,,0.05,weatherlink.com 1.10,2013-06-28 03:05:00,
2013-06-27 23:35:00,64.2,63.0,29.82,East,80,7.0,13.0,96,0.00,,,0.05,weatherlink.com 1.10,2013-06-28 03:35:00,
2013-06-27 23:50:00,63.9,63.0,29.81,SE,132,3.0,10.0,96,0.00,,,0.05,weatherlink.com 1.10,2013-06-28 03:50:00,